FW4317 Weather Reports


time (UTC)temp
C
wind
direction
speed
KPH
gust
KPH
rain 1hr
cm
rain 24hr
cm
rain mn
cm
humidity
%
barometer
mb
20260505063516 19 148 0.0 3.2 0.00 0.00 0.00 76 1002.0
20260505062516 19 147 1.6 9.7 0.00 0.00 0.00 75 1001.5
20260505061516 19 161 3.2 11.3 0.00 0.00 0.00 74 1001.4
20260505060516 19 152 4.8 11.3 0.00 0.00 0.00 74 1001.5
20260505055516 20 158 3.2 9.7 0.00 0.00 0.00 73 1001.7
20260505054536 20 143 3.2 9.7 0.00 0.00 0.00 72 1001.8
20260505053516 20 153 3.2 11.3 0.00 0.00 0.00 71 1002.0
20260505052516 20 165 3.2 14.5 0.00 0.00 0.00 70 1002.0
20260505051536 20 144 4.8 16.1 0.00 0.00 0.00 70 1001.9
20260505050516 20 161 3.2 12.9 0.00 0.00 0.00 70 1001.9
20260505041516 20 154 1.6 8.0 0.00 0.00 0.00 68 1002.2
20260505040517 20 156 4.8 14.5 0.00 0.00 0.00 68 1001.9
20260505035517 20 160 4.8 17.7 0.00 0.00 0.00 68 1002.2
20260505034517 20 153 6.4 14.5 0.00 0.00 0.00 67 1002.5
20260505033517 20 158 1.6 16.1 0.00 0.00 0.00 66 1002.6
20260505032517 21 155 4.8 14.5 0.00 0.00 0.00 65 1002.7
20260505031557 21 166 3.2 14.5 0.00 0.00 0.00 65 1002.9
20260505030517 21 134 3.2 9.7 0.00 0.00 0.00 64 1003.1
20260505025517 21 139 3.2 9.7 0.00 0.00 0.00 64 1003.0
20260505024517 21 149 3.2 12.9 0.00 0.00 0.00 63 1003.2
20260505023537 21 141 4.8 12.9 0.00 0.00 0.00 63 1003.0
20260505022557 21 170 3.2 11.3 0.00 0.00 0.00 62 1002.8
20260505021517 21 139 3.2 9.7 0.00 0.00 0.00 61 1002.9
20260505020517 22 151 4.8 16.1 0.00 0.00 0.00 61 1002.9
20260505015517 22 156 3.2 11.3 0.00 0.00 0.00 61 1002.9
20260505014516 22 159 4.8 12.9 0.00 0.00 0.00 61 1002.8
20260505013537 22 149 3.2 9.7 0.00 0.00 0.00 61 1002.7
20260505012516 22 142 3.2 11.3 0.00 0.00 0.00 60 1002.7
20260505011517 22 150 1.6 12.9 0.00 0.00 0.00 59 1002.5
20260505010517 23 164 4.8 12.9 0.00 0.00 0.00 58 1002.6
20260505005517 23 150 3.2 12.9 0.00 0.00 0.00 59 1002.6
20260505004517 23 150 1.6 11.3 0.00 0.00 0.00 59 1002.5
20260505003537 23 178 1.6 11.3 0.00 0.00 0.00 58 1002.6
20260505002537 23 163 3.2 9.7 0.00 0.00 0.00 57 1002.6
20260505001517 23 170 1.6 12.9 0.00 0.00 0.00 57 1002.8
20260505000517 24 166 1.6 14.5 0.00 0.00 0.00 57 1002.8
20260504235517 24 157 1.6 8.0 0.00 0.00 0.00 56 1002.8
20260504234517 24 166 3.2 11.3 0.00 0.00 0.00 55 1002.7
20260504233517 24 197 1.6 12.9 0.00 0.00 0.00 55 1002.8
20260504232517 25 158 1.6 9.7 0.00 0.00 0.00 56 1002.8
20260504231517 25 156 1.6 9.7 0.00 0.00 0.00 55 1002.9
20260504230517 25 153 3.2 17.7 0.00 0.00 0.00 55 1002.9
20260504225516 25 169 1.6 8.0 0.00 0.00 0.00 55 1003.0
20260504224516 25 163 3.2 17.7 0.00 0.00 0.00 54 1003.0
20260504223516 25 177 1.6 16.1 0.00 0.00 0.00 54 1002.8
20260504222516 25 178 3.2 16.1 0.00 0.00 0.00 53 1002.8
20260504221517 25 175 1.6 16.1 0.00 0.00 0.00 54 1002.7
20260504220517 25 172 3.2 16.1 0.00 0.00 0.00 54 1002.9
20260504215516 25 167 3.2 16.1 0.00 0.00 0.00 54 1003.1
20260504214517 25 165 3.2 16.1 0.00 0.00 0.00 53 1003.0
20260504213517 25 171 3.2 17.7 0.00 0.00 0.00 53 1003.2
20260504212517 25 165 4.8 20.9 0.00 0.00 0.00 54 1003.2
20260504211517 25 163 3.2 16.1 0.00 0.00 0.00 53 1003.1
20260504210516 26 162 6.4 25.7 0.00 0.00 0.00 53 1003.3
20260504205537 26 174 3.2 24.1 0.00 0.00 0.00 52 1003.4
20260504204517 25 150 3.2 19.3 0.00 0.00 0.00 53 1003.5
20260504203537 25 159 4.8 17.7 0.00 0.00 0.00 53 1003.7
20260504202517 26 176 8.0 27.4 0.00 0.00 0.00 52 1004.0
20260504201516 26 164 3.2 25.7 0.00 0.00 0.00 53 1004.1
20260504200517 26 173 8.0 24.1 0.00 0.00 0.00 53 1004.3
20260504195516 26 160 8.0 27.4 0.00 0.00 0.00 52 1004.3
20260504194537 26 169 9.7 25.7 0.00 0.00 0.00 52 1004.4
20260504193517 26 169 9.7 24.1 0.00 0.00 0.00 52 1004.5
20260504192517 26 185 6.4 16.1 0.00 0.00 0.00 52 1004.6
20260504191517 26 159 6.4 27.4 0.00 0.00 0.00 52 1004.7
20260504190517 26 163 6.4 17.7 0.00 0.00 0.00 51 1004.8
20260504185517 26 171 6.4 22.5 0.00 0.00 0.00 51 1005.1
20260504184515 26 166 4.8 25.7 0.00 0.00 0.00 53 1005.3
20260504183516 26 201 4.8 19.3 0.00 0.00 0.00 52 1005.3
20260504182516 26 170 6.4 24.1 0.00 0.00 0.00 51 1005.5
20260504181536 26 180 4.8 24.1 0.00 0.00 0.00 52 1005.6
20260504180517 26 157 6.4 25.7 0.00 0.00 0.00 53 1005.8
20260504175517 25 169 8.0 20.9 0.00 0.00 0.00 53 1006.0
20260504174516 25 174 4.8 22.5 0.00 0.00 0.00 52 1006.2
20260504173517 25 174 4.8 20.9 0.00 0.00 0.00 53 1006.3
20260504172517 25 178 4.8 17.7 0.00 0.00 0.00 52 1006.3
20260504171517 25 168 4.8 24.1 0.00 0.00 0.00 52 1006.4
20260504170517 25 167 6.4 19.3 0.00 0.00 0.00 51 1006.4
20260504150517 22 182 1.6 19.3 0.00 0.00 0.00 52 1007.7
20260504140517 20 182 1.6 8.0 0.00 0.00 0.00 58 1007.9
20260504130536 17 184 3.2 17.7 0.00 0.00 0.00 63 1008.2
20260504110515 16 199 0.0 6.4 0.00 0.00 0.00 62 1008.8
20260504100517 17 199 1.6 8.0 0.00 0.00 0.00 59 1009.2
20260504081517 18 201 1.6 6.4 0.00 0.00 0.00 53 1009.5
20260504080516 18 201 0.0 8.0 0.00 0.00 0.00 53 1009.6